Temp
-12 -12 -12 -12 -12 -12 -12 -12 -12 -12 -12 -12 -12 -11 -12 -12 -11 -11 -11 -11 -12 -11 -11 -11 -11 -11 -11 -11 -12 -12 -12 -11 -12 -12 -12 -12 -12 -12 -12 -12 -12 -12 -12
-12 -12 -12 -12 -12 -12 -12 -12 -12 -12 -12 -12 -11 -11 -12 -12 -12 -12 -12 -12 -12 -12 -12 -12 -12 -11 -12 -12 -12 -12 -12 -12 -12 -12 -12 -12 -12 -12 -12 -13 -12 -12 -12
-13 -13 -13 -13 -13 -12 -12 -12 -12 -12 -12 -12 -12 -12 -12 -12 -12 -12 -13 -13 -13 -13 -13 -13 -14 -13 -13 -13 -13 -13 -12 -13 -13 -13 -13 -13 -13 -13 -13 -13 -13 -12 -13
-13 -13 -13 -13 -13 -13 -12 -12 -12 -12 -12 -13 -12 -13 -13 -14 -14 -14 -14 -14 -14 -15 -15 -15 -15 -15 -15 -14 -14 -13 -13 -13 -13 -13 -13 -13 -14 -14 -13 -13 -13 -13 -13
-14 -14 -13 -13 -13 -13 -13 -12 -13 -13 -14 -14 -14 -14 -14 -15 -15 -15 -16 -16 -16 -16 -16 -16 -16 -16 -16 -16 -16 -15 -15 -15 -15 -14 -14 -14 -14 -14 -14 -13 -13 -13 -13
-15 -14 -14 -14 -14 -14 -14 -13 -13 -14 -15 -15 -15 -16 -16 -16 -17 -17 -17 -17 -17 -17 -17 -17 -17 -17 -17 -17 -17 -17 -16 -16 -16 -16 -15 -15 -15 -14 -14 -14 -14 -14 -13
-15 -14 -14 -14 -14 -14 -15 -14 -15 -15 -16 -16 -17 -17 -17 -17 -17 -18 -17 -18 -18 -18 -18 -18 -18 -18 -18 -17 -17 -17 -17 -17 -17 -16 -16 -16 -15 -15 -15 -14 -14 -15 -14
-15 -14 -15 -15 -15 -15 -16 -16 -17 -17 -17 -17 -18 -18 -18 -18 -18 -18 -18 -18 -18 -19 -19 -19 -19 -19 -19 -18 -18 -17 -17 -17 -17 -17 -16 -16 -16 -15 -15 -15 -15 -14 -14
-15 -15 -16 -16 -16 -16 -17 -17 -17 -17 -17 -18 -18 -18 -19 -19 -19 -19 -19 -19 -19 -20 -20 -20 -20 -20 -20 -20 -19 -19 -18 -18 -17 -17 -17 -16 -16 -16 -15 -15 -15 -15 -14
-16 -16 -16 -16 -17 -18 -18 -18 -18 -18 -18 -19 -19 -19 -19 -19 -19 -20 -19 -20 -21 -21 -21 -21 -21 -21 -21 -21 -20 -20 -19 -19 -18 -18 -17 -17 -16 -16 -16 -15 -15 -15 -15
-17 -17 -17 -18 -18 -18 -18 -18 -19 -19 -19 -19 -19 -19 -19 -20 -20 -20 -21 -21 -22 -22 -22 -23 -23 -23 -23 -23 -22 -21 -20 -20 -19 -18 -18 -17 -17 -16 -16 -16 -16 -15 -15
-18 -18 -18 -18 -19 -19 -19 -19 -19 -19 -20 -20 -20 -20 -20 -20 -21 -21 -22 -22 -22 -22 -22 -23 -24 -24 -24 -24 -23 -22 -21 -20 -20 -19 -18 -18 -17 -17 -16 -16 -16 -16 -15
-18 -18 -19 -19 -19 -19 -19 -19 -20 -20 -20 -20 -21 -21 -21 -21 -22 -22 -22 -22 -22 -23 -23 -24 -24 -24 -24 -24 -24 -23 -22 -21 -20 -19 -19 -18 -18 -17 -17 -16 -16 -16 -15
-19 -19 -20 -19 -19 -19 -20 -20 -20 -21 -21 -22 -21 -21 -22 -22 -22 -23 -23 -23 -22 -23 -23 -24 -24 -24 -24 -24 -24 -23 -22 -21 -20 -20 -19 -19 -18 -18 -17 -17 -16 -16 -16
-20 -20 -20 -19 -20 -20 -20 -20 -21 -21 -22 -22 -21 -22 -22 -22 -23 -23 -24 -23 -23 -23 -23 -23 -24 -24 -24 -24 -23 -22 -22 -21 -20 -20 -19 -19 -19 -18 -18 -17 -17 -16 -16
-20 -20 -20 -20 -20 -20 -20 -21 -21 -22 -22 -22 -22 -23 -23 -23 -23 -23 -23 -23 -23 -23 -23 -24 -24 -24 -24 -24 -23 -22 -21 -21 -20 -20 -19 -19 -19 -19 -18 -18 -18 -17 -17
-20 -20 -20 -20 -21 -20 -21 -21 -22 -22 -22 -22 -22 -23 -23 -23 -23 -23 -23 -23 -23 -23 -23 -24 -24 -24 -23 -23 -23 -22 -22 -21 -20 -20 -19 -19 -19 -18 -18 -18 -18 -18 -17
-20 -21 -21 -21 -21 -21 -21 -22 -22 -23 -23 -22 -23 -23 -23 -23 -23 -23 -23 -23 -23 -23 -23 -23 -23 -23 -23 -23 -22 -22 -22 -21 -20 -20 -19 -19 -19 -18 -18 -18 -18 -18 -18
-21 -21 -21 -21 -21 -22 -22 -23 -23 -23 -23 -23 -23 -23 -23 -23 -23 -24 -23 -23 -23 -23 -23 -23 -23 -23 -23 -22 -22 -22 -22 -21 -21 -20 -20 -19 -19 -19 -18 -18 -18 -18 -18
-21 -21 -21 -22 -22 -22 -23 -23 -23 -23 -23 -23 -23 -23 -23 -23 -23 -24 -24 -23 -23 -23 -23 -23 -23 -23 -23 -22 -22 -22 -21 -21 -21 -21 -20 -20 -20 -19 -19 -19 -18 -18 -18
-22 -22 -22 -22 -22 -23 -23 -23 -23 -23 -23 -23 -24 -24 -24 -24 -24 -24 -24 -24 -23 -24 -23 -23 -23 -23 -23 -23 -22 -22 -22 -22 -22 -21 -21 -20 -20 -20 -19 -19 -19 -19 -18
-22 -22 -22 -23 -23 -23 -23 -24 -24 -24 -24 -24 -25 -25 -25 -25 -24 -24 -24 -24 -24 -24 -24 -23 -23 -23 -23 -23 -23 -23 -23 -22 -22 -21 -21 -20 -20 -20 -20 -20 -19 -19 -19
-22 -22 -22 -23 -23 -23 -24 -24 -24 -24 -24 -25 -25 -26 -25 -25 -25 -25 -25 -24 -24 -24 -24 -24 -24 -24 -24 -24 -23 -23 -23 -23 -22 -22 -22 -21 -21 -20 -20 -20 -20 -20 -19
-22 -23 -23 -23 -23 -24 -24 -24 -24 -25 -25 -25 -26 -26 -26 -26 -26 -26 -26 -25 -25 -25 -25 -24 -24 -24 -24 -24 -24 -24 -24 -23 -23 -22 -22 -22 -22 -22 -21 -20 -20 -20 -20
-23 -24 -23 -23 -24 -24 -24 -25 -25 -25 -25 -26 -26 -26 -27 -26 -26 -26 -26 -26 -25 -25 -25 -25 -25 -25 -25 -24 -24 -24 -24 -23 -23 -23 -22 -22 -22 -21 -21 -21 -21 -20 -20
-24 -24 -24 -24 -24 -24 -25 -25 -25 -25 -26 -26 -26 -27 -27 -27 -27 -26 -26 -26 -25 -25 -25 -25 -25 -25 -25 -25 -24 -24 -24 -24 -24 -23 -23 -23 -22 -23 -22 -22 -22 -22 -22
Height
5779 5777 5777 5776 5775 5773 5770 5767 5764 5760 5757 5755 5753 5752 5750 5747 5745 5743 5741 5739 5736 5734 5733 5733 5733 5733 5733 5733 5734 5736 5737 5738 5741 5742 5743 5745 5748 5752 5755 5759 5761 5763 5765
5771 5770 5769 5767 5765 5762 5759 5756 5752 5748 5745 5742 5741 5739 5736 5733 5731 5731 5727 5723 5721 5719 5718 5717 5716 5716 5717 5717 5717 5718 5721 5723 5725 5727 5730 5732 5734 5739 5742 5747 5750 5753 5756
5762 5760 5758 5756 5752 5750 5746 5743 5739 5736 5732 5729 5728 5725 5722 5719 5716 5713 5711 5708 5706 5703 5701 5701 5700 5698 5699 5700 5701 5701 5703 5706 5708 5711 5714 5718 5722 5725 5729 5734 5739 5742 5745
5753 5750 5748 5744 5740 5738 5736 5733 5729 5724 5720 5716 5713 5709 5706 5703 5700 5697 5694 5691 5688 5687 5685 5682 5681 5680 5680 5680 5681 5683 5686 5689 5692 5694 5698 5702 5707 5711 5715 5720 5726 5731 5734
5742 5739 5737 5734 5731 5728 5726 5722 5718 5713 5707 5703 5700 5695 5691 5686 5681 5678 5677 5673 5670 5669 5667 5664 5662 5662 5661 5661 5663 5663 5665 5669 5671 5675 5679 5685 5690 5696 5700 5705 5711 5717 5723
5731 5728 5726 5723 5720 5717 5713 5711 5707 5701 5696 5691 5687 5682 5678 5674 5669 5665 5663 5659 5655 5653 5650 5646 5644 5643 5644 5644 5644 5646 5648 5649 5653 5656 5661 5668 5673 5678 5685 5690 5696 5703 5710
5721 5718 5716 5713 5710 5706 5702 5698 5695 5691 5685 5678 5673 5670 5664 5659 5654 5649 5648 5644 5640 5637 5632 5629 5627 5625 5625 5625 5626 5628 5631 5632 5634 5638 5644 5649 5656 5662 5669 5673 5679 5686 5693
5710 5707 5705 5702 5699 5695 5690 5686 5681 5679 5674 5667 5661 5655 5651 5645 5641 5635 5633 5629 5623 5620 5615 5611 5610 5608 5607 5606 5607 5608 5613 5614 5617 5622 5626 5632 5640 5647 5653 5658 5665 5670 5681
5699 5696 5693 5690 5686 5682 5677 5672 5668 5664 5662 5657 5651 5645 5638 5631 5623 5619 5619 5614 5608 5603 5597 5594 5592 5589 5588 5587 5587 5589 5594 5594 5599 5606 5612 5617 5623 5630 5636 5642 5649 5656 5663
5687 5684 5681 5677 5675 5670 5666 5662 5658 5653 5649 5645 5642 5635 5628 5621 5612 5603 5603 5601 5594 5588 5583 5579 5576 5573 5570 5569 5570 5572 5573 5576 5582 5590 5597 5602 5608 5614 5620 5627 5635 5642 5648
5676 5673 5670 5667 5664 5659 5656 5652 5648 5643 5638 5636 5631 5624 5619 5609 5602 5596 5586 5587 5582 5577 5573 5568 5563 5559 5555 5553 5552 5555 5557 5562 5568 5575 5582 5587 5593 5600 5606 5613 5620 5627 5633
5664 5661 5658 5656 5652 5648 5645 5641 5636 5632 5627 5624 5619 5613 5606 5599 5591 5585 5580 5575 5572 5567 5562 5559 5553 5551 5546 5543 5542 5543 5546 5551 5557 5562 5567 5573 5579 5586 5592 5599 5606 5610 5618
5653 5650 5647 5645 5641 5637 5636 5632 5627 5622 5617 5613 5608 5602 5596 5590 5582 5576 5571 5567 5562 5558 5555 5551 5547 5544 5541 5539 5537 5537 5539 5543 5547 5551 5555 5559 5566 5572 5578 5585 5591 5597 5603
5642 5639 5637 5635 5633 5628 5626 5621 5617 5612 5608 5603 5597 5592 5586 5580 5573 5567 5563 5559 5555 5552 5548 5545 5543 5540 5537 5535 5534 5534 5535 5537 5541 5543 5546 5550 5555 5561 5566 5571 5576 5583 5587
5633 5630 5628 5627 5622 5619 5616 5612 5607 5603 5598 5594 5589 5584 5578 5571 5565 5561 5557 5554 5550 5546 5542 5541 5538 5536 5533 5531 5530 5531 5531 5533 5535 5537 5540 5543 5547 5551 5556 5559 5563 5569 5574
5623 5621 5619 5618 5613 5610 5605 5602 5598 5593 5590 5586 5581 5576 5570 5564 5559 5556 5553 5550 5547 5543 5540 5537 5535 5531 5530 5528 5528 5528 5528 5529 5530 5532 5534 5537 5540 5543 5547 5550 5553 5557 5562
5613 5612 5610 5608 5605 5601 5597 5593 5589 5587 5582 5578 5573 5568 5563 5558 5554 5551 5549 5546 5543 5540 5538 5536 5533 5531 5529 5527 5526 5525 5525 5525 5527 5528 5530 5532 5534 5536 5539 5542 5544 5547 5552
5603 5602 5601 5598 5594 5591 5588 5584 5581 5578 5574 5571 5567 5562 5556 5552 5548 5546 5544 5542 5539 5537 5535 5532 5530 5528 5527 5525 5522 5522 5521 5521 5521 5523 5524 5525 5527 5529 5531 5534 5535 5537 5540
5593 5593 5590 5588 5585 5581 5578 5575 5572 5569 5565 5563 5559 5555 5549 5545 5543 5541 5539 5537 5535 5533 5531 5529 5527 5525 5523 5521 5520 5518 5516 5516 5516 5516 5517 5518 5520 5521 5523 5525 5526 5528 5529
5583 5583 5580 5578 5575 5571 5570 5567 5564 5561 5557 5554 5551 5547 5542 5538 5536 5535 5533 5532 5530 5528 5526 5525 5522 5520 5518 5516 5513 5510 5509 5509 5508 5509 5509 5509 5510 5511 5512 5514 5516 5517 5518
5572 5572 5571 5569 5565 5563 5561 5558 5555 5551 5548 5545 5541 5537 5534 5531 5529 5528 5526 5525 5524 5523 5521 5518 5516 5514 5512 5510 5508 5505 5503 5501 5499 5499 5499 5498 5499 5499 5500 5501 5503 5505 5507
5562 5562 5561 5559 5556 5554 5553 5550 5547 5543 5539 5535 5532 5529 5526 5523 5521 5520 5518 5517 5517 5515 5514 5512 5510 5508 5506 5504 5502 5500 5497 5494 5491 5489 5488 5487 5487 5486 5486 5487 5488 5490 5492
5551 5553 5551 5549 5547 5546 5543 5541 5538 5534 5530 5526 5524 5521 5518 5516 5513 5511 5511 5509 5508 5508 5507 5506 5504 5502 5499 5497 5495 5491 5488 5486 5484 5482 5479 5476 5475 5474 5473 5473 5472 5472 5474
5541 5542 5542 5540 5539 5538 5535 5532 5530 5526 5521 5517 5515 5513 5510 5508 5506 5505 5504 5502 5501 5501 5500 5499 5496 5494 5491 5488 5485 5481 5478 5475 5473 5470 5468 5464 5460 5458 5456 5456 5456 5456 5456
5531 5533 5532 5532 5531 5528 5526 5523 5520 5517 5513 5509 5507 5504 5501 5499 5498 5498 5497 5495 5494 5493 5492 5490 5488 5485 5481 5478 5474 5469 5465 5460 5455 5452 5448 5445 5441 5438 5436 5436 5434 5435 5435
5524 5524 5523 5523 5522 5519 5517 5514 5511 5508 5504 5501 5499 5496 5494 5492 5490 5490 5489 5488 5486 5485 5483 5481 5477 5474 5470 5465 5461 5457 5452 5447 5441 5435 5428 5423 5418 5413 5410 5408 5409 5408 5410
Wind_Speed
31 35 37 38 39 41 41 41 42 44 46 48 49 51 51 53 56 59 61 61 61 61 61 62 61 60 61 61 59 58 56 57 57 56 56 56 55 54 51 46 43 41 38
36 39 39 40 42 43 43 43 45 48 52 54 56 56 58 59 61 62 63 63 64 64 62 64 65 65 65 62 59 58 57 58 60 59 60 60 58 57 56 51 48 45 42
38 40 43 45 46 44 43 45 46 48 50 54 58 61 64 65 65 66 66 66 65 64 61 61 61 61 63 64 62 60 61 61 63 65 63 63 62 59 59 56 52 50 47
41 44 46 46 46 46 46 48 53 57 59 59 60 62 64 65 65 63 62 61 61 59 59 58 60 60 61 63 64 64 65 66 66 67 66 64 63 61 61 59 55 54 52
44 47 46 47 48 51 52 53 57 61 65 67 68 68 65 62 59 59 59 59 60 59 60 60 61 62 63 66 67 70 72 70 68 70 68 67 63 62 62 62 60 55 55
47 49 50 51 54 57 60 61 62 63 64 64 62 59 59 59 58 59 59 61 60 60 61 61 61 62 61 61 65 68 67 69 69 68 68 68 66 63 63 61 62 58 57
48 51 54 57 59 59 60 62 63 63 61 60 60 58 58 58 60 61 60 60 58 57 57 59 58 59 60 60 60 63 63 63 64 64 64 63 63 65 63 64 62 60 60
51 54 57 60 60 60 60 61 60 60 58 57 57 58 58 60 59 58 56 55 57 58 59 60 60 61 61 63 62 62 61 61 58 59 60 61 60 60 61 62 63 63 61
54 55 57 59 60 60 59 60 59 57 54 53 56 57 55 55 57 56 56 58 59 56 55 55 57 55 55 55 57 60 62 63 60 55 54 55 54 57 59 60 62 64 64
55 56 57 58 58 58 57 56 54 52 53 54 53 51 52 53 57 61 60 58 50 48 47 48 50 51 53 53 54 55 54 59 60 56 54 53 53 53 56 58 61 64 67
56 57 57 57 57 56 53 51 52 55 52 51 49 49 50 54 57 57 50 45 41 40 40 42 42 42 42 42 44 47 47 49 52 53 51 51 53 52 53 54 57 62 66
54 55 55 56 55 49 47 51 53 50 50 49 49 50 51 53 51 46 42 39 37 38 38 36 35 31 29 26 27 30 34 38 40 43 44 45 49 51 52 53 56 59 62
53 53 55 53 46 46 50 51 49 49 49 48 48 49 49 47 39 39 37 35 35 35 32 29 31 28 23 20 21 24 26 31 34 38 41 43 45 49 51 52 54 57 60
53 54 51 45 44 49 49 48 48 48 45 45 45 46 44 39 36 33 30 31 34 31 28 28 27 24 19 16 13 14 20 24 25 28 32 36 39 44 48 51 55 57 60
53 49 45 44 46 46 46 46 45 44 42 43 44 41 38 35 30 27 26 28 28 26 30 27 24 19 18 16 12 8 12 19 23 24 27 29 31 34 38 44 51 55 59
47 42 44 45 44 44 43 43 42 41 41 41 39 36 36 34 27 24 24 24 21 21 23 22 20 18 16 15 13 10 8 9 13 17 21 26 31 34 34 36 41 48 53
41 40 43 42 41 40 41 41 39 40 40 39 36 33 34 33 26 23 22 22 19 16 16 15 16 15 15 15 14 13 12 10 10 11 15 18 20 23 30 36 38 38 45
38 41 40 39 38 39 39 37 37 37 38 37 35 33 34 33 26 22 21 21 21 19 17 17 16 16 16 17 19 19 19 19 18 18 18 19 22 25 27 28 31 34 37
38 38 37 37 38 38 37 35 36 37 35 37 38 34 34 32 27 21 20 20 21 19 17 16 16 18 18 18 18 20 21 23 25 26 26 27 28 30 31 34 35 35 36
40 38 38 37 36 36 35 34 35 36 36 39 40 36 34 32 28 22 19 20 19 19 19 18 19 20 21 22 24 25 26 26 27 29 31 33 35 36 37 38 39 40 42
42 36 39 38 33 34 34 34 34 35 38 39 39 35 32 32 28 24 21 20 19 21 22 22 22 23 25 26 27 29 31 32 33 33 33 35 36 39 42 44 46 46 46
37 38 37 35 33 33 33 33 36 37 37 38 37 32 31 32 29 24 23 20 21 22 24 25 26 27 28 29 31 32 33 35 36 37 37 37 39 41 43 45 48 51 52
37 39 35 32 33 34 33 34 35 37 36 35 32 29 30 32 29 25 23 21 21 23 25 27 28 29 30 32 34 36 37 38 38 39 41 42 41 42 44 47 50 52 54
34 33 33 32 33 32 32 34 36 35 33 32 31 32 33 30 28 26 23 21 22 25 27 29 31 32 34 36 39 40 42 43 44 46 46 48 50 50 52 54 55 56 57
24 29 31 32 31 31 32 34 35 34 32 31 31 32 30 28 26 26 24 23 24 28 28 30 32 35 38 40 42 45 47 48 51 53 54 56 58 60 62 63 65 66 66
25 30 29 29 30 31 32 33 34 33 33 31 30 30 29 29 26 26 26 26 26 29 31 33 36 39 42 45 47 49 50 52 55 58 61 63 65 67 71 73 73 75 75
Wind_Direction
297 295 293 292 294 297 298 300 300 301 301 300 299 297 296 294 293 292 291 290 291 288 284 280 279 280 279 277 273 269 263 262 260 258 256 255 256 256 256 252 250 253 254
291 293 293 294 295 297 298 300 302 303 303 302 299 296 294 292 291 289 288 287 284 284 283 281 279 276 274 273 270 266 261 255 254 254 255 254 252 253 254 250 247 247 248
293 293 294 294 296 299 304 304 304 303 300 299 297 296 294 292 290 289 289 289 286 283 282 282 279 277 275 274 269 260 258 254 250 250 249 250 250 249 251 250 245 245 245
287 287 290 294 298 299 297 295 297 298 297 298 296 295 294 293 291 288 286 284 282 280 277 274 271 268 264 261 259 256 252 250 250 249 249 248 248 245 246 248 244 242 244
288 290 292 294 296 296 297 295 296 298 299 298 297 296 291 287 284 283 281 281 280 278 277 275 272 270 266 262 259 257 253 250 250 249 248 247 245 245 243 244 245 240 241
290 291 293 296 298 299 298 296 294 296 296 295 291 288 288 287 287 285 284 285 285 282 280 279 277 274 271 266 263 259 257 256 254 252 250 248 246 243 241 240 244 243 241
292 295 297 299 298 299 297 294 295 294 293 292 291 290 291 288 288 289 288 289 289 287 283 278 275 273 270 267 264 260 258 256 254 252 251 250 247 244 241 239 238 239 238
294 294 296 296 297 296 295 294 293 293 293 292 293 295 295 296 295 293 292 290 287 283 279 278 275 272 269 265 260 257 255 252 249 250 248 247 247 245 242 239 238 238 235
291 294 294 296 297 297 297 296 295 294 290 290 295 296 297 295 293 293 291 288 286 285 284 282 279 276 272 267 262 257 251 250 247 244 246 245 242 242 240 238 236 236 237
292 293 295 297 297 297 297 295 293 293 296 297 297 297 297 294 293 293 291 291 289 289 290 286 281 278 276 272 266 259 256 251 246 244 241 242 240 238 240 237 237 235 236
293 294 295 296 297 298 296 294 294 298 301 299 298 296 294 293 293 294 294 293 294 297 295 290 291 290 282 274 264 257 255 250 246 246 244 240 240 238 238 237 236 237 237
290 293 295 298 301 297 293 294 298 300 298 298 296 295 295 295 297 294 291 295 297 300 296 294 296 293 285 277 265 254 247 243 242 244 243 240 239 238 237 237 236 236 238
293 294 296 300 296 291 293 298 299 298 296 295 296 297 297 299 295 294 294 297 303 299 299 300 297 295 288 286 274 257 246 242 241 243 244 242 238 237 235 235 237 237 239
292 294 295 293 286 292 297 299 297 295 295 299 301 300 303 298 300 299 296 301 302 304 304 303 299 296 298 294 275 258 246 245 248 246 243 241 241 239 238 236 235 234 237
290 290 287 281 290 296 298 298 299 297 298 301 302 303 303 302 308 305 301 299 299 310 307 305 303 305 305 306 305 286 246 242 247 248 242 241 241 241 240 239 239 237 236
283 281 280 286 293 296 300 299 297 296 300 301 304 305 305 306 306 307 305 300 299 303 304 306 310 313 314 313 312 308 293 260 249 247 247 246 245 243 244 245 244 242 240
277 276 283 289 296 301 300 296 295 297 300 302 304 304 307 307 301 302 303 302 302 301 303 305 310 313 313 313 310 309 305 293 279 263 253 251 251 249 246 245 246 247 245
270 276 285 291 298 299 296 294 294 298 300 301 305 301 305 307 298 296 297 296 295 296 298 301 303 306 308 310 309 306 301 294 287 280 274 265 261 259 257 255 253 252 250
273 280 289 294 297 296 293 290 291 296 299 303 305 303 301 306 296 291 291 291 289 292 295 297 303 306 306 300 296 295 291 287 283 278 274 268 264 260 257 255 256 258 256
275 283 291 292 293 292 289 288 293 297 299 300 302 302 298 301 292 285 283 284 284 290 293 298 301 304 306 306 307 302 294 287 281 275 272 270 268 264 262 259 256 256 256
270 284 291 290 290 290 287 290 293 295 298 301 302 297 293 295 288 280 277 278 284 292 295 298 303 305 305 305 305 304 301 296 291 285 280 276 271 268 266 263 261 259 257
272 279 286 286 289 287 288 292 296 297 299 302 301 294 293 293 283 274 273 278 284 291 296 298 298 301 303 303 302 299 297 295 295 287 282 278 275 272 269 267 266 262 258
271 279 283 285 288 285 288 293 295 296 299 300 298 293 296 294 281 271 269 274 285 293 294 296 297 299 301 302 302 304 302 298 293 289 285 280 277 274 272 269 267 265 262
268 278 281 285 285 286 291 293 293 295 298 296 294 297 296 287 279 268 269 277 285 289 291 292 295 299 302 304 304 303 301 297 293 290 289 287 285 283 280 276 272 268 265
277 276 281 283 283 287 291 290 292 297 298 293 295 299 294 285 276 266 267 275 281 284 288 292 295 299 302 304 305 306 304 303 302 300 296 293 291 286 282 276 272 268 265
272 274 280 282 285 289 288 288 293 296 295 293 295 296 291 287 277 269 270 274 281 287 290 295 300 304 306 308 309 308 306 307 306 305 304 301 296 291 285 277 271 267 264